YE0EEE-10 Weather Reports


time (UTC)temp
C
wind
direction
speed
KPH
gust
KPH
rain 1hr
cm
rain 24hr
cm
rain mn
cm
humidity
%
barometer
mb
20260509000618 27 211 3.2 4.8 0.00 0.00 0.00 77 1011.8
20260509000422 27 150 4.8 6.4 0.00 0.00 0.00 77 1011.9
20260509000216 27 201 4.8 6.4 0.00 0.00 0.00 78 1011.9
20260509000020 27 192 4.8 6.4 0.00 0.00 0.00 78 1011.8
20260508235825 27 178 3.2 6.4 0.00 0.00 0.00 79 1011.8
20260508235619 27 0.0 0.0 0.00 0.00 0.00 82 1011.8
20260508235423 27 0.0 3.2 0.00 0.00 0.00 82 1011.8
20260508235217 27 0.0 1.6 0.00 0.00 0.00 82 1011.8
20260508235022 27 162 3.2 4.8 0.00 0.00 0.00 83 1011.8
20260508234816 27 135 1.6 4.8 0.00 0.00 0.00 83 1011.7
20260508234620 27 217 3.2 6.4 0.00 0.00 0.00 83 1011.6
20260508234425 27 1.6 4.8 0.00 0.00 0.00 83 1011.6
20260508234219 27 190 3.2 6.4 0.00 0.00 0.00 83 1011.6
20260508234023 27 0.0 6.4 0.00 0.00 0.00 83 1011.5
20260508233818 27 0.0 0.0 0.00 0.00 0.00 83 1011.4
20260508233622 27 0.0 0.0 0.00 0.00 0.00 83 1011.5
20260508233416 27 180 1.6 4.8 0.00 0.00 0.00 84 1011.4
20260508233220 27 205 3.2 4.8 0.00 0.00 0.00 84 1011.4
20260508233025 26 146 1.6 4.8 0.00 0.00 0.00 84 1011.4
20260508232819 26 135 0.0 3.2 0.00 0.00 0.00 84 1011.3
20260508232623 26 135 3.2 4.8 0.00 0.00 0.00 84 1011.3
20260508232417 26 135 1.6 4.8 0.00 0.00 0.00 84 1011.3
20260508232222 26 135 3.2 4.8 0.00 0.00 0.00 84 1011.3
20260508232016 26 315 1.6 4.8 0.00 0.00 0.00 84 1011.3
20260508231820 26 157 1.6 3.2 0.00 0.00 0.00 84 1011.2
20260508231625 26 191 3.2 3.2 0.00 0.00 0.00 83 1011.2
20260508231419 26 154 1.6 3.2 0.00 0.00 0.00 83 1011.2
20260508231223 26 225 1.6 3.2 0.00 0.00 0.00 83 1011.1
20260508231017 26 155 1.6 3.2 0.00 0.00 0.00 83 1011.1
20260508230822 26 253 1.6 3.2 0.00 0.00 0.00 83 1010.9
20260508230616 26 315 0.0 3.2 0.00 0.00 0.00 83 1011.0
20260508230420 26 0.0 0.0 0.00 0.00 0.00 83 1010.9
20260508230225 26 0.0 0.0 0.00 0.00 0.00 83 1010.9
20260508230019 26 0.0 0.0 0.00 0.00 0.00 83 1010.9
20260508225823 26 338 0.0 3.2 0.00 0.00 0.00 83 1010.9
20260508225617 26 1 1.6 3.2 0.00 0.00 0.00 82 1010.9
20260508225422 26 192 0.0 3.2 0.00 0.00 0.00 82 1010.9
20260508225216 26 225 0.0 3.2 0.00 0.00 0.00 82 1010.9
20260508225020 26 225 0.0 3.2 0.00 0.00 0.00 82 1011.0
20260508224825 26 225 1.6 3.2 0.00 0.00 0.00 82 1010.9
20260508224619 26 238 1.6 3.2 0.00 0.00 0.00 82 1010.9
20260508224423 26 0.0 0.0 0.00 0.00 0.00 82 1010.9
20260508224217 26 0.0 0.0 0.00 0.00 0.00 82 1010.8
20260508224022 26 0.0 0.0 0.00 0.00 0.00 82 1010.8
20260508223816 26 0.0 0.0 0.00 0.00 0.00 82 1010.8
20260508223620 26 0.0 0.0 0.00 0.00 0.00 82 1010.8
20260508223425 26 0.0 0.0 0.00 0.00 0.00 81 1010.8
20260508223219 26 0.0 0.0 0.00 0.00 0.00 81 1010.8
20260508223023 26 0.0 0.0 0.00 0.00 0.00 81 1010.8
20260508222817 26 0.0 1.6 0.00 0.00 0.00 81 1010.8
20260508222622 26 0.0 3.2 0.00 0.00 0.00 81 1010.7
20260508222416 26 45 3.2 4.8 0.00 0.00 0.00 81 1010.8
20260508222220 26 175 1.6 4.8 0.00 0.00 0.00 81 1010.7
20260508222025 26 228 1.6 3.2 0.00 0.00 0.00 81 1010.7
20260508221819 26 315 0.0 3.2 0.00 0.00 0.00 81 1010.7
20260508221623 26 0.0 0.0 0.00 0.00 0.00 81 1010.6
20260508221417 26 0.0 0.0 0.00 0.00 0.00 81 1010.6
20260508221222 26 0.0 0.0 0.00 0.00 0.00 81 1010.6
20260508221016 26 0.0 0.0 0.00 0.00 0.00 81 1010.6
20260508220820 26 0.0 0.0 0.00 0.00 0.00 81 1010.6
20260508220625 26 0.0 0.0 0.00 0.00 0.00 81 1010.5
20260508220419 26 0.0 0.0 0.00 0.00 0.00 81 1010.5
20260508220223 26 0.0 0.0 0.00 0.00 0.00 81 1010.5
20260508220017 26 0.0 0.0 0.00 0.00 0.00 81 1010.5
20260508215822 26 0.0 0.0 0.00 0.00 0.00 81 1010.4
20260508215616 26 0.0 0.0 0.00 0.00 0.00 81 1010.4
20260508215420 26 0.0 0.0 0.00 0.00 0.00 81 1010.4
20260508215225 26 0.0 0.0 0.00 0.00 0.00 81 1010.4
20260508215019 26 0.0 0.0 0.00 0.00 0.00 81 1010.4
20260508214823 26 0.0 0.0 0.00 0.00 0.00 81 1010.3
20260508214617 26 0.0 0.0 0.00 0.00 0.00 81 1010.3
20260508214422 26 0.0 0.0 0.00 0.00 0.00 81 1010.3
20260508214216 26 0.0 0.0 0.00 0.00 0.00 81 1010.4
20260508214020 27 0.0 0.0 0.00 0.00 0.00 81 1010.3
20260508213825 27 0.0 0.0 0.00 0.00 0.00 81 1010.3
20260508213618 27 0.0 0.0 0.00 0.00 0.00 81 1010.2
20260508213423 27 0.0 0.0 0.00 0.00 0.00 81 1010.2
20260508213217 26 0.0 0.0 0.00 0.00 0.00 81 1010.3
20260508213021 26 0.0 0.0 0.00 0.00 0.00 81 1010.3
20260508212816 26 0.0 0.0 0.00 0.00 0.00 81 1010.3
20260508212620 27 0.0 0.0 0.00 0.00 0.00 80 1010.3
20260508212424 27 0.0 0.0 0.00 0.00 0.00 80 1010.3
20260508212219 27 0.0 0.0 0.00 0.00 0.00 80 1010.3
20260508212023 27 0.0 0.0 0.00 0.00 0.00 80 1010.3
20260508211817 27 0.0 0.0 0.00 0.00 0.00 80 1010.2
20260508211621 27 0.0 0.0 0.00 0.00 0.00 80 1010.2
20260508211416 27 0.0 0.0 0.00 0.00 0.00 80 1010.3
20260508211220 27 0.0 0.0 0.00 0.00 0.00 80 1010.2
20260508211024 27 0.0 0.0 0.00 0.00 0.00 80 1010.2
20260508210819 27 0.0 0.0 0.00 0.00 0.00 80 1010.3
20260508210623 27 0.0 0.0 0.00 0.00 0.00 80 1010.2
20260508210417 27 0.0 0.0 0.00 0.00 0.00 80 1010.2
20260508210222 27 0.0 0.0 0.00 0.00 0.00 80 1010.2
20260508210016 27 0.0 0.0 0.00 0.00 0.00 80 1010.3
20260508205820 27 0.0 0.0 0.00 0.00 0.00 80 1010.3
20260508205625 27 0.0 0.0 0.00 0.00 0.00 80 1010.3
20260508205419 27 0.0 0.0 0.00 0.00 0.00 80 1010.2
20260508205223 27 0.0 0.0 0.00 0.00 0.00 80 1010.3
20260508205017 27 0.0 0.0 0.00 0.00 0.00 80 1010.3
20260508204822 27 0.0 0.0 0.00 0.00 0.00 80 1010.3
20260508204616 27 0.0 0.0 0.00 0.00 0.00 80 1010.3
20260508204420 27 0.0 0.0 0.00 0.00 0.00 80 1010.4
20260508204224 27 0.0 0.0 0.00 0.00 0.00 80 1010.4
20260508204019 27 0.0 0.0 0.00 0.00 0.00 80 1010.5
20260508203823 27 0.0 0.0 0.00 0.00 0.00 80 1010.5
20260508203617 27 0.0 0.0 0.00 0.00 0.00 80 1010.5
20260508203422 27 0.0 0.0 0.00 0.00 0.00 80 1010.5
20260508203216 27 0.0 0.0 0.00 0.00 0.00 80 1010.5
20260508203020 27 0.0 0.0 0.00 0.00 0.00 80 1010.5
20260508202825 27 0.0 0.0 0.00 0.00 0.00 80 1010.5
20260508202619 27 0.0 0.0 0.00 0.00 0.00 80 1010.6
20260508202424 27 0.0 0.0 0.00 0.00 0.00 80 1010.6
20260508202218 27 0.0 0.0 0.00 0.00 0.00 79 1010.5
20260508202022 27 0.0 0.0 0.00 0.00 0.00 79 1010.5
20260508201816 27 0.0 0.0 0.00 0.00 0.00 79 1010.5
20260508201620 27 0.0 0.0 0.00 0.00 0.00 79 1010.5
20260508201425 27 0.0 0.0 0.00 0.00 0.00 79 1010.5
20260508201219 27 0.0 0.0 0.00 0.00 0.00 79 1010.6
20260508201023 27 0.0 0.0 0.00 0.00 0.00 79 1010.5
20260508200817 27 0.0 0.0 0.00 0.00 0.00 79 1010.6
20260508200622 27 0.0 0.0 0.00 0.00 0.00 79 1010.6
20260508200416 27 0.0 0.0 0.00 0.00 0.00 79 1010.6
20260508200220 27 0.0 0.0 0.00 0.00 0.00 79 1010.6
20260508200025 27 0.0 0.0 0.00 0.00 0.00 79 1010.6
20260508195819 27 0.0 0.0 0.00 0.00 0.00 79 1010.6
20260508195624 27 0.0 0.0 0.00 0.00 0.00 79 1010.6
20260508195417 27 0.0 0.0 0.00 0.00 0.00 79 1010.5
20260508195222 27 0.0 0.0 0.00 0.00 0.00 79 1010.6
20260508195016 27 0.0 0.0 0.00 0.00 0.00 79 1010.6
20260508194820 27 0.0 0.0 0.00 0.00 0.00 79 1010.5
20260508194625 27 0.0 0.0 0.00 0.00 0.00 79 1010.5
20260508194419 27 0.0 0.0 0.00 0.00 0.00 79 1010.5
20260508194223 27 0.0 0.0 0.00 0.00 0.00 79 1010.6
20260508194017 27 0.0 0.0 0.00 0.00 0.00 79 1010.5
20260508193822 27 0.0 0.0 0.00 0.00 0.00 79 1010.5
20260508193616 27 0.0 0.0 0.00 0.00 0.00 79 1010.5
20260508193420 27 0.0 0.0 0.00 0.00 0.00 75 1010.5
20260508193225 27 0.0 0.0 0.00 0.00 0.00 76 1010.5
20260508193019 27 0.0 0.0 0.00 0.00 0.00 76 1010.5
20260508192823 27 0.0 0.0 0.00 0.00 0.00 76 1010.5
20260508192617 27 0.0 0.0 0.00 0.00 0.00 76 1010.5
20260508192422 27 0.0 0.0 0.00 0.00 0.00 75 1010.6
20260508192216 27 0.0 0.0 0.00 0.00 0.00 75 1010.5
20260508192020 27 0.0 0.0 0.00 0.00 0.00 75 1010.5
20260508191825 27 0.0 0.0 0.00 0.00 0.00 75 1010.5
20260508191619 27 0.0 0.0 0.00 0.00 0.00 75 1010.5
20260508191423 27 0.0 0.0 0.00 0.00 0.00 75 1010.5
20260508191217 27 0.0 0.0 0.00 0.00 0.00 75 1010.6
20260508191022 27 0.0 0.0 0.00 0.00 0.00 75 1010.6
20260508190816 27 0.0 0.0 0.00 0.00 0.00 75 1010.6
20260508190620 27 0.0 0.0 0.00 0.00 0.00 75 1010.7
20260508190425 27 0.0 0.0 0.00 0.00 0.00 74 1010.7
20260508190219 27 0.0 0.0 0.00 0.00 0.00 74 1010.7
20260508190023 27 0.0 0.0 0.00 0.00 0.00 74 1010.7
20260508185817 27 0.0 0.0 0.00 0.00 0.00 73 1010.6
20260508185622 27 0.0 0.0 0.00 0.00 0.00 73 1010.6
20260508185416 27 0.0 0.0 0.00 0.00 0.00 73 1010.6
20260508185220 27 0.0 0.0 0.00 0.00 0.00 73 1010.6
20260508185025 27 0.0 0.0 0.00 0.00 0.00 73 1010.6
20260508184819 27 0.0 0.0 0.00 0.00 0.00 73 1010.7
20260508184623 27 0.0 0.0 0.00 0.00 0.00 73 1010.7
20260508184417 27 0.0 0.0 0.00 0.00 0.00 73 1010.8
20260508184222 27 0.0 0.0 0.00 0.00 0.00 73 1010.8
20260508184016 27 0.0 0.0 0.00 0.00 0.00 73 1010.8
20260508183820 27 0.0 0.0 0.00 0.00 0.00 72 1010.8
20260508183625 27 0.0 0.0 0.00 0.00 0.00 72 1010.8
20260508183419 27 0.0 0.0 0.00 0.00 0.00 72 1010.8
20260508183224 27 0.0 0.0 0.00 0.00 0.00 72 1010.8
20260508183017 27 0.0 0.0 0.00 0.00 0.00 72 1010.8
20260508182822 27 0.0 0.0 0.00 0.00 0.00 72 1010.9
20260508182616 27 0.0 0.0 0.00 0.00 0.00 72 1010.9
20260508182420 27 0.0 0.0 0.00 0.00 0.00 72 1010.9
20260508182225 27 0.0 0.0 0.00 0.00 0.00 72 1010.9
20260508182019 27 0.0 0.0 0.00 0.00 0.00 72 1010.9
20260508181823 27 0.0 0.0 0.00 0.00 0.00 72 1010.8
20260508181617 27 0.0 0.0 0.00 0.00 0.00 72 1010.9
20260508181422 27 0.0 0.0 0.00 0.00 0.00 72 1010.9
20260508181216 27 0.0 0.0 0.00 0.00 0.00 72 1010.9
20260508181020 27 0.0 0.0 0.00 0.00 0.00 72 1011.0
20260508180825 27 0.0 0.0 0.00 0.00 0.00 72 1010.9
20260508180619 27 0.0 0.0 0.00 0.00 0.00 72 1010.9
20260508180423 27 0.0 0.0 0.00 0.00 0.00 72 1010.9
20260508180218 27 0.0 0.0 0.00 0.00 0.00 72 1011.0
20260508180022 27 0.0 0.0 0.00 0.00 0.00 72 1011.0
20260508175816 27 0.0 0.0 0.00 0.00 0.00 72 1011.0
20260508175621 27 0.0 0.0 0.00 0.00 0.00 72 1011.0
20260508175425 27 0.0 0.0 0.00 0.00 0.00 72 1011.1
20260508175219 27 0.0 0.0 0.00 0.00 0.00 72 1011.1
20260508175024 27 0.0 0.0 0.00 0.00 0.00 72 1011.1
20260508174817 27 0.0 0.0 0.00 0.00 0.00 72 1011.2
20260508174622 27 0.0 0.0 0.00 0.00 0.00 72 1011.2
20260508174416 27 0.0 0.0 0.00 0.00 0.00 72 1011.2
20260508174220 27 0.0 0.0 0.00 0.00 0.00 72 1011.1
20260508174025 27 0.0 0.0 0.00 0.00 0.00 72 1011.2
20260508173819 27 0.0 0.0 0.00 0.00 0.00 71 1011.3
20260508173624 27 0.0 0.0 0.00 0.00 0.00 71 1011.2
20260508173418 27 0.0 0.0 0.00 0.00 0.00 71 1011.2
20260508173222 27 0.0 0.0 0.00 0.00 0.00 71 1011.2
20260508173016 28 0.0 0.0 0.00 0.00 0.00 71 1011.1
20260508172821 28 0.0 0.0 0.00 0.00 0.00 71 1011.2
20260508172625 28 0.0 0.0 0.00 0.00 0.00 71 1011.2
20260508172419 28 0.0 0.0 0.00 0.00 0.00 71 1011.3
20260508172224 28 0.0 0.0 0.00 0.00 0.00 71 1011.2
20260508172018 28 0.0 0.0 0.00 0.00 0.00 71 1011.2
20260508171822 28 0.0 0.0 0.00 0.00 0.00 71 1011.3
20260508171616 28 0.0 0.0 0.00 0.00 0.00 71 1011.1
20260508171421 28 0.0 0.0 0.00 0.00 0.00 71 1011.3
20260508171225 28 0.0 0.0 0.00 0.00 0.00 71 1011.3
20260508171019 28 0.0 0.0 0.00 0.00 0.00 71 1011.4
20260508170824 28 0.0 0.0 0.00 0.00 0.00 71 1011.4
20260508170618 28 0.0 0.0 0.00 0.00 0.00 71 1011.4
20260508170422 28 0.0 0.0 0.00 0.00 0.00 71 1011.4
20260508170216 28 0.0 0.0 0.00 0.00 0.00 71 1011.3
20260508170020 28 0.0 0.0 0.00 0.00 0.00 71 1011.3
20260508165825 28 0.0 0.0 0.00 0.00 0.00 71 1011.3
20260508165619 28 0.0 0.0 0.00 0.00 0.00 71 1011.3
20260508165423 28 0.0 0.0 0.00 0.00 0.00 71 1011.3
20260508165217 28 0.0 3.2 0.00 0.00 0.00 71 1011.3
20260508165022 28 45 1.6 3.2 0.00 0.00 0.00 71 1011.4
20260508164816 28 0.0 0.0 0.00 0.00 0.00 71 1011.3
20260508164620 28 0.0 0.0 0.00 0.00 0.00 71 1011.4
20260508164425 28 0.0 0.0 0.00 0.00 0.00 71 1011.4
20260508164219 28 0.0 0.0 0.00 0.00 0.00 71 1011.4
20260508164023 28 45 0.0 3.2 0.00 0.00 0.00 71 1011.4
20260508163818 28 0.0 0.0 0.00 0.00 0.00 71 1011.5
20260508163622 28 0.0 0.0 0.00 0.00 0.00 71 1011.4
20260508163416 28 0.0 0.0 0.00 0.00 0.00 71 1011.6
20260508163221 28 0.0 1.6 0.00 0.00 0.00 71 1011.6
20260508163025 28 18 1.6 3.2 0.00 0.00 0.00 71 1011.6
20260508162819 28 0.0 0.0 0.00 0.00 0.00 71 1011.6
20260508162624 28 45 1.6 3.2 0.00 0.00 0.00 71 1011.6
20260508162418 28 121 1.6 3.2 0.00 0.00 0.00 71 1011.5
20260508162222 28 97 1.6 3.2 0.00 0.00 0.00 71 1011.6
20260508162016 28 0.0 0.0 0.00 0.00 0.00 71 1011.4
20260508161821 28 0.0 0.0 0.00 0.00 0.00 71 1011.5
20260508161625 28 45 1.6 3.2 0.00 0.00 0.00 71 1011.5
20260508161419 28 103 1.6 3.2 0.00 0.00 0.00 71 1011.5
20260508161223 28 96 1.6 3.2 0.00 0.00 0.00 71 1011.5
20260508161017 28 22 3.2 4.8 0.00 0.00 0.00 71 1011.5
20260508160822 28 21 3.2 4.8 0.00 0.00 0.00 71 1011.4
20260508160616 28 325 1.6 6.4 0.00 0.00 0.00 71 1011.4
20260508160420 28 0 1.6 6.4 0.00 0.00 0.00 70 1011.4
20260508160225 28 6 1.6 3.2 0.00 0.00 0.00 70 1011.4
20260508160019 28 0.0 0.0 0.00 0.00 0.00 70 1011.4
20260508155823 28 0.0 0.0 0.00 0.00 0.00 70 1011.4
20260508155617 28 0.0 0.0 0.00 0.00 0.00 70 1011.4
20260508155422 28 0.0 0.0 0.00 0.00 0.00 70 1011.6
20260508155216 28 0.0 0.0 0.00 0.00 0.00 70 1011.5
20260508155020 28 0.0 0.0 0.00 0.00 0.00 70 1011.5
20260508154825 28 0.0 0.0 0.00 0.00 0.00 70 1011.4
20260508154619 28 0.0 0.0 0.00 0.00 0.00 70 1011.4
20260508154423 28 0.0 0.0 0.00 0.00 0.00 70 1011.4
20260508154217 28 0.0 0.0 0.00 0.00 0.00 70 1011.4
20260508154022 28 0.0 0.0 0.00 0.00 0.00 70 1011.4
20260508153816 28 0.0 0.0 0.00 0.00 0.00 70 1011.4
20260508153620 28 0.0 0.0 0.00 0.00 0.00 70 1011.4
20260508153425 28 0.0 1.6 0.00 0.00 0.00 70 1011.4
20260508153219 28 22 1.6 3.2 0.00 0.00 0.00 70 1011.4
20260508153023 28 72 1.6 3.2 0.00 0.00 0.00 70 1011.4
20260508152817 28 328 1.6 4.8 0.00 0.00 0.00 70 1011.4
20260508152622 28 45 0.0 3.2 0.00 0.00 0.00 70 1011.4
20260508152416 28 45 1.6 3.2 0.00 0.00 0.00 70 1011.4
20260508152220 28 17 1.6 3.2 0.00 0.00 0.00 70 1011.4
20260508152025 28 0.0 0.0 0.00 0.00 0.00 70 1011.4
20260508151819 28 0.0 0.0 0.00 0.00 0.00 70 1011.4
20260508151623 28 0.0 0.0 0.00 0.00 0.00 70 1011.4
20260508151417 28 0.0 0.0 0.00 0.00 0.00 69 1011.5
20260508151222 28 0.0 0.0 0.00 0.00 0.00 69 1011.4
20260508151016 28 0.0 0.0 0.00 0.00 0.00 69 1011.4
20260508150820 28 0.0 0.0 0.00 0.00 0.00 69 1011.4
20260508150625 28 0.0 0.0 0.00 0.00 0.00 69 1011.5
20260508150419 28 0.0 0.0 0.00 0.00 0.00 69 1011.4
20260508150223 28 0.0 0.0 0.00 0.00 0.00 68 1011.5
20260508150017 28 0.0 0.0 0.00 0.00 0.00 68 1011.5
20260508145822 28 0.0 0.0 0.00 0.00 0.00 68 1011.5
20260508145616 28 0.0 0.0 0.00 0.00 0.00 68 1011.5
20260508145420 28 0.0 0.0 0.00 0.00 0.00 68 1011.5
20260508145226 28 0.0 0.0 0.00 0.00 0.00 68 1011.6
20260508145019 28 0.0 0.0 0.00 0.00 0.00 68 1011.5
20260508144823 28 0.0 0.0 0.00 0.00 0.00 68 1011.5
20260508144617 28 0.0 0.0 0.00 0.00 0.00 68 1011.5
20260508144422 28 0.0 0.0 0.00 0.00 0.00 68 1011.5
20260508144216 28 0.0 0.0 0.00 0.00 0.00 68 1011.5
20260508144020 28 0.0 0.0 0.00 0.00 0.00 68 1011.5
20260508143825 28 0.0 0.0 0.00 0.00 0.00 68 1011.5
20260508143619 28 0.0 0.0 0.00 0.00 0.00 68 1011.5
20260508143423 28 0.0 0.0 0.00 0.00 0.00 68 1011.4
20260508143217 28 0.0 0.0 0.00 0.00 0.00 67 1011.5
20260508143022 28 0.0 0.0 0.00 0.00 0.00 67 1011.6
20260508142816 28 0.0 0.0 0.00 0.00 0.00 67 1011.6
20260508142620 28 0.0 0.0 0.00 0.00 0.00 67 1011.5
20260508142425 29 0.0 0.0 0.00 0.00 0.00 67 1011.5
20260508142219 29 0.0 0.0 0.00 0.00 0.00 67 1011.6
20260508142023 29 0.0 0.0 0.00 0.00 0.00 67 1011.6
20260508141817 29 0.0 0.0 0.00 0.00 0.00 67 1011.6
20260508141622 29 0.0 0.0 0.00 0.00 0.00 67 1011.5
20260508141416 29 0.0 0.0 0.00 0.00 0.00 67 1011.5
20260508141220 29 0.0 0.0 0.00 0.00 0.00 67 1011.4
20260508141025 29 0.0 0.0 0.00 0.00 0.00 67 1011.5
20260508140819 29 0.0 0.0 0.00 0.00 0.00 67 1011.4
20260508140623 29 0.0 0.0 0.00 0.00 0.00 67 1011.4
20260508140417 29 0.0 0.0 0.00 0.00 0.00 67 1011.4
20260508140222 29 135 0.0 3.2 0.00 0.00 0.00 67 1011.3
20260508140016 29 0.0 0.0 0.00 0.00 0.00 67 1011.3
20260508135820 29 0.0 0.0 0.00 0.00 0.00 67 1011.2
20260508135625 29 0.0 0.0 0.00 0.00 0.00 67 1011.2
20260508135419 29 0.0 0.0 0.00 0.00 0.00 66 1011.2
20260508135223 29 45 1.6 3.2 0.00 0.00 0.00 66 1011.2
20260508135017 29 45 1.6 4.8 0.00 0.00 0.00 66 1011.2
20260508134822 29 315 1.6 4.8 0.00 0.00 0.00 66 1011.2
20260508134616 29 315 0.0 3.2 0.00 0.00 0.00 66 1011.2
20260508134420 29 45 0.0 3.2 0.00 0.00 0.00 66 1011.1
20260508134224 29 20 3.2 4.8 0.00 0.00 0.00 66 1011.1
20260508134019 30 19 3.2 6.4 0.00 0.00 0.00 66 1011.1
20260508133823 30 323 4.8 6.4 0.00 0.00 0.00 66 1011.2
20260508133617 30 331 4.8 6.4 0.00 0.00 0.00 65 1011.2
20260508133421 30 357 1.6 6.4 0.00 0.00 0.00 65 1011.1
20260508133215 30 10 1.6 3.2 0.00 0.00 0.00 65 1011.2
20260508133020 30 8 3.2 6.4 0.00 0.00 0.00 65 1011.2
20260508132824 30 12 1.6 6.4 0.00 0.00 0.00 65 1011.2
20260508132619 30 43 1.6 3.2 0.00 0.00 0.00 65 1011.1
20260508132423 30 45 1.6 3.2 0.00 0.00 0.00 65 1011.2
20260508132217 30 29 1.6 4.8 0.00 0.00 0.00 65 1011.2
20260508132021 30 0.0 1.6 0.00 0.00 0.00 65 1011.2
20260508131815 30 0 1.6 3.2 0.00 0.00 0.00 65 1011.2
20260508131620 30 0 0.0 3.2 0.00 0.00 0.00 65 1011.1
20260508131424 30 0.0 0.0 0.00 0.00 0.00 65 1011.1
20260508131218 30 0.0 0.0 0.00 0.00 0.00 65 1011.2
20260508131023 30 0.0 3.2 0.00 0.00 0.00 64 1011.2
20260508130817 30 45 1.6 3.2 0.00 0.00 0.00 64 1011.1
20260508130621 30 45 1.6 3.2 0.00 0.00 0.00 64 1011.1
20260508130415 30 0.0 3.2 0.00 0.00 0.00 65 1011.1
20260508130220 30 45 1.6 3.2 0.00 0.00 0.00 64 1011.2
20260508130024 30 0.0 3.2 0.00 0.00 0.00 64 1011.1
20260508125818 30 315 1.6 6.4 0.00 0.00 0.00 64 1011.2
20260508125623 30 45 1.6 6.4 0.00 0.00 0.00 64 1011.2
20260508125417 30 1.6 3.2 0.00 0.00 0.00 64 1011.2
20260508125221 30 1.6 3.2 0.00 0.00 0.00 64 1011.2
20260508125016 30 0.0 3.2 0.00 0.00 0.00 64 1011.1
20260508124820 30 1.6 3.2 0.00 0.00 0.00 65 1011.0
20260508124624 30 0.0 3.2 0.00 0.00 0.00 65 1011.0
20260508124418 30 1.6 4.8 0.00 0.00 0.00 65 1011.0
20260508124223 30 45 1.6 4.8 0.00 0.00 0.00 65 1011.0
20260508124017 30 45 1.6 4.8 0.00 0.00 0.00 65 1011.0
20260508123823 30 1.6 3.2 0.00 0.00 0.00 64 1011.1
20260508123615 30 0.0 3.2 0.00 0.00 0.00 64 1011.0
20260508123420 30 1.6 3.2 0.00 0.00 0.00 64 1011.0
20260508123224 30 0.0 0.0 0.00 0.00 0.00 64 1010.9
20260508123018 30 0.0 1.6 0.00 0.00 0.00 64 1010.9
20260508122823 30 0.0 1.6 0.00 0.00 0.00 64 1010.9
20260508122617 30 327 1.6 3.2 0.00 0.00 0.00 64 1010.9
20260508122421 30 45 0.0 3.2 0.00 0.00 0.00 64 1010.8
20260508122215 30 1.6 3.2 0.00 0.00 0.00 64 1010.8
20260508122020 30 3.2 4.8 0.00 0.00 0.00 64 1010.8
20260508121824 30 3.2 4.8 0.00 0.00 0.00 63 1010.7
20260508121618 30 3.2 4.8 0.00 0.00 0.00 63 1010.7
20260508121423 30 0.0 3.2 0.00 0.00 0.00 63 1010.7
20260508121217 30 0.0 0.0 0.00 0.00 0.00 63 1010.7
20260508121022 30 0.0 3.2 0.00 0.00 0.00 63 1010.7
20260508120816 30 1.6 3.2 0.00 0.00 0.00 63 1010.6
20260508120620 30 135 0.0 3.2 0.00 0.00 0.00 63 1010.6
20260508120424 30 135 4.8 6.4 0.00 0.00 0.00 63 1010.6
20260508120219 30 135 4.8 6.4 0.00 0.00 0.00 63 1010.6
20260508120023 30 1.6 4.8 0.00 0.00 0.00 63 1010.7
20260508115817 30 1.6 3.2 0.00 0.00 0.00 62 1010.7
20260508115621 30 0.0 3.2 0.00 0.00 0.00 62 1010.6
20260508115415 30 135 1.6 3.2 0.00 0.00 0.00 62 1010.5
20260508115220 30 3.2 6.4 0.00 0.00 0.00 62 1010.5
20260508115025 30 135 4.8 6.4 0.00 0.00 0.00 63 1010.4
20260508114818 30 135 1.6 3.2 0.00 0.00 0.00 63 1010.4
20260508114623 30 135 3.2 6.4 0.00 0.00 0.00 63 1010.3
20260508114417 30 135 3.2 6.4 0.00 0.00 0.00 63 1010.3
20260508114221 30 135 3.2 6.4 0.00 0.00 0.00 63 1010.2
20260508114015 30 135 3.2 4.8 0.00 0.00 0.00 64 1010.2
20260508113820 30 135 3.2 6.4 0.00 0.00 0.00 64 1010.1
20260508113624 30 3.2 4.8 0.00 0.00 0.00 64 1010.1
20260508113418 30 135 3.2 6.4 0.00 0.00 0.00 64 1010.1
20260508113223 30 91 3.2 6.4 0.00 0.00 0.00 64 1010.1
20260508113017 30 3.2 6.4 0.00 0.00 0.00 64 1010.0
20260508112821 30 135 3.2 6.4 0.00 0.00 0.00 64 1009.9
20260508112616 30 135 3.2 6.4 0.00 0.00 0.00 64 1009.9
20260508112420 31 135 3.2 6.4 0.00 0.00 0.00 64 1009.9
20260508112224 31 135 4.8 6.4 0.00 0.00 0.00 64 1009.8
20260508112019 31 3.2 6.4 0.00 0.00 0.00 64 1009.8
20260508111823 31 3.2 4.8 0.00 0.00 0.00 64 1009.7
20260508111617 31 135 3.2 4.8 0.00 0.00 0.00 64 1009.8
20260508111422 31 135 3.2 4.8 0.00 0.00 0.00 64 1009.7
20260508111215 31 135 3.2 3.2 0.00 0.00 0.00 64 1009.7
20260508111020 31 135 4.8 6.4 0.00 0.00 0.00 63 1009.6
20260508110825 31 135 4.8 6.4 0.00 0.00 0.00 63 1009.6
20260508110618 31 135 6.4 6.4 0.00 0.00 0.00 64 1009.5
20260508110423 31 135 3.2 4.8 0.00 0.00 0.00 63 1009.5
20260508110217 31 3.2 4.8 0.00 0.00 0.00 63 1009.5
20260508110021 31 135 4.8 6.4 0.00 0.00 0.00 63 1009.5
20260508105815 31 135 4.8 8.0 0.00 0.00 0.00 63 1009.5
20260508105620 31 3.2 6.4 0.00 0.00 0.00 63 1009.5
20260508105424 31 3.2 8.0 0.00 0.00 0.00 63 1009.5
20260508105218 31 135 6.4 8.0 0.00 0.00 0.00 63 1009.5
20260508105023 31 4.8 6.4 0.00 0.00 0.00 63 1009.5
20260508104817 31 3.2 6.4 0.00 0.00 0.00 63 1009.5
20260508104621 31 135 4.8 9.7 0.00 0.00 0.00 63 1009.5
20260508104425 31 135 6.4 9.7 0.00 0.00 0.00 63 1009.5
20260508104219 31 135 4.8 6.4 0.00 0.00 0.00 63 1009.6
20260508104024 31 135 3.2 4.8 0.00 0.00 0.00 63 1009.5
20260508103818 31 135 3.2 6.4 0.00 0.00 0.00 64 1009.4
20260508103622 31 4.8 8.0 0.00 0.00 0.00 64 1009.3
20260508103416 31 315 4.8 8.0 0.00 0.00 0.00 64 1009.3
20260508103221 31 135 4.8 9.7 0.00 0.00 0.00 63 1009.4
20260508103015 31 63 4.8 9.7 0.00 0.00 0.00 63 1009.4
20260508102820 31 135 6.4 9.7 0.00 0.00 0.00 63 1009.3
20260508102624 31 165 4.8 8.0 0.00 0.00 0.00 63 1009.3
20260508102418 31 135 4.8 6.4 0.00 0.00 0.00 63 1009.3
20260508102222 31 135 8.0 11.3 0.00 0.00 0.00 63 1009.2
20260508102017 31 135 6.4 9.7 0.00 0.00 0.00 62 1009.2
20260508101821 31 135 6.4 12.9 0.00 0.00 0.00 62 1009.1
20260508101615 31 135 6.4 8.0 0.00 0.00 0.00 62 1009.1
20260508101419 31 229 6.4 9.7 0.00 0.00 0.00 62 1009.1
20260508101224 31 135 6.4 11.3 0.00 0.00 0.00 62 1009.1
20260508101018 31 135 6.4 12.9 0.00 0.00 0.00 62 1009.1
20260508100823 31 135 4.8 8.0 0.00 0.00 0.00 62 1009.1
20260508100617 31 135 6.4 8.0 0.00 0.00 0.00 62 1009.0
20260508100421 31 135 4.8 8.0 0.00 0.00 0.00 62 1009.0
20260508100225 31 135 6.4 8.0 0.00 0.00 0.00 62 1009.1
20260508100019 31 135 4.8 6.4 0.00 0.00 0.00 62 1009.1
20260508095824 31 135 6.4 12.9 0.00 0.00 0.00 61 1009.1
20260508095618 31 135 6.4 9.7 0.00 0.00 0.00 61 1009.1
20260508095422 31 135 6.4 11.3 0.00 0.00 0.00 61 1009.1
20260508095216 31 135 8.0 11.3 0.00 0.00 0.00 61 1009.1
20260508095021 31 135 4.8 11.3 0.00 0.00 0.00 61 1009.0
20260508094825 31 6.4 9.7 0.00 0.00 0.00 61 1009.0
20260508094619 31 135 6.4 9.7 0.00 0.00 0.00 61 1009.0
20260508094424 31 135 6.4 12.9 0.00 0.00 0.00 61 1009.0
20260508094218 32 135 8.0 12.9 0.00 0.00 0.00 61 1009.0
20260508094022 32 135 6.4 11.3 0.00 0.00 0.00 61 1009.1
20260508093816 32 135 6.4 11.3 0.00 0.00 0.00 61 1009.0
20260508093621 32 135 6.4 12.9 0.00 0.00 0.00 61 1009.0
20260508093425 32 135 8.0 11.3 0.00 0.00 0.00 61 1009.0
20260508093219 32 135 6.4 11.3 0.00 0.00 0.00 60 1009.0
20260508093024 32 135 6.4 11.3 0.00 0.00 0.00 60 1009.0
20260508092818 32 135 4.8 6.4 0.00 0.00 0.00 60 1009.0
20260508092622 32 92 9.7 14.5 0.00 0.00 0.00 60 1008.9
20260508092416 32 63 6.4 12.9 0.00 0.00 0.00 60 1008.9
20260508092221 32 135 8.0 12.9 0.00 0.00 0.00 60 1008.8
20260508092025 32 81 6.4 12.9 0.00 0.00 0.00 60 1008.9
20260508091819 32 124 6.4 9.7 0.00 0.00 0.00 60 1008.9
20260508091624 32 6.4 11.3 0.00 0.00 0.00 60 1008.9
20260508091418 32 65 8.0 12.9 0.00 0.00 0.00 60 1008.9
20260508091222 32 121 9.7 16.1 0.00 0.00 0.00 60 1009.0
20260508091016 32 135 8.0 16.1 0.00 0.00 0.00 60 1008.9
20260508090821 32 135 6.4 11.3 0.00 0.00 0.00 60 1008.8
20260508090625 32 255 6.4 11.3 0.00 0.00 0.00 60 1008.9
20260508090419 32 135 6.4 11.3 0.00 0.00 0.00 54 1008.9
20260508090224 32 146 11.3 14.5 0.00 0.00 0.00 54 1008.9
20260508090018 32 270 9.7 16.1 0.00 0.00 0.00 54 1008.8
20260508085822 32 164 9.7 16.1 0.00 0.00 0.00 53 1008.8
20260508085616 32 135 8.0 12.9 0.00 0.00 0.00 53 1008.8
20260508085421 32 123 8.0 12.9 0.00 0.00 0.00 53 1008.7
20260508085225 33 124 9.7 12.9 0.00 0.00 0.00 53 1008.6
20260508085019 33 229 9.7 16.1 0.00 0.00 0.00 52 1008.6
20260508084823 33 135 6.4 9.7 0.00 0.00 0.00 52 1008.6
20260508084618 33 4.8 8.0 0.00 0.00 0.00 52 1008.7
20260508084422 33 135 4.8 8.0 0.00 0.00 0.00 52 1008.7
20260508084216 33 135 6.4 12.9 0.00 0.00 0.00 52 1008.7
20260508084021 33 135 4.8 11.3 0.00 0.00 0.00 52 1008.8
20260508083825 33 135 4.8 11.3 0.00 0.00 0.00 52 1008.8
20260508083619 33 135 6.4 11.3 0.00 0.00 0.00 52 1008.8
20260508083424 33 135 8.0 11.3 0.00 0.00 0.00 51 1008.8
20260508083218 33 135 9.7 14.5 0.00 0.00 0.00 51 1008.8
20260508083022 33 135 6.4 11.3 0.00 0.00 0.00 51 1008.7
20260508082816 33 135 8.0 11.3 0.00 0.00 0.00 51 1008.7
20260508082621 33 153 8.0 12.9 0.00 0.00 0.00 51 1008.6
20260508082425 33 65 8.0 12.9 0.00 0.00 0.00 51 1008.6
20260508082219 33 116 6.4 12.9 0.00 0.00 0.00 51 1008.6
20260508082024 33 135 8.0 12.9 0.00 0.00 0.00 51 1008.6
20260508081818 33 135 9.7 16.1 0.00 0.00 0.00 50 1008.5
20260508081622 33 135 9.7 16.1 0.00 0.00 0.00 51 1008.7
20260508081416 33 135 9.7 12.9 0.00 0.00 0.00 50 1008.7
20260508081221 33 135 11.3 19.3 0.00 0.00 0.00 50 1008.7
20260508081025 33 135 11.3 19.3 0.00 0.00 0.00 50 1008.7
20260508080819 33 135 9.7 14.5 0.00 0.00 0.00 50 1008.7
20260508080624 33 133 8.0 16.1 0.00 0.00 0.00 51 1008.8
20260508080418 33 143 8.0 16.1 0.00 0.00 0.00 50 1008.6
20260508080222 34 9.7 16.1 0.00 0.00 0.00 50 1008.7
20260508080016 34 8.0 14.5 0.00 0.00 0.00 51 1008.7
20260508075820 34 80 6.4 8.0 0.00 0.00 0.00 50 1008.6
20260508075625 34 135 8.0 17.7 0.00 0.00 0.00 50 1008.6
20260508075419 34 178 9.7 17.7 0.00 0.00 0.00 50 1008.6
20260508075223 34 135 8.0 12.9 0.00 0.00 0.00 50 1008.7
20260508075018 34 88 8.0 11.3 0.00 0.00 0.00 51 1008.7
20260508074822 34 135 8.0 12.9 0.00 0.00 0.00 50 1008.7
20260508074616 34 135 8.0 12.9 0.00 0.00 0.00 51 1008.7
20260508074421 34 135 8.0 14.5 0.00 0.00 0.00 51 1008.6
20260508074225 34 135 8.0 12.9 0.00 0.00 0.00 50 1008.6
20260508074019 34 135 9.7 12.9 0.00 0.00 0.00 50 1008.6
20260508073824 34 180 9.7 17.7 0.00 0.00 0.00 50 1008.6
20260508073618 35 135 12.9 17.7 0.00 0.00 0.00 50 1008.7
20260508073422 35 135 8.0 12.9 0.00 0.00 0.00 50 1008.6
20260508073216 34 160 6.4 11.3 0.00 0.00 0.00 50 1008.7
20260508073020 34 149 11.3 17.7 0.00 0.00 0.00 50 1008.7
20260508072825 35 135 11.3 16.1 0.00 0.00 0.00 50 1008.8
20260508072619 35 135 8.0 12.9 0.00 0.00 0.00 50 1008.8
20260508072423 35 135 6.4 12.9 0.00 0.00 0.00 50 1008.8
20260508072217 35 135 8.0 12.9 0.00 0.00 0.00 49 1008.8
20260508072022 35 135 8.0 12.9 0.00 0.00 0.00 49 1008.8
20260508071816 35 135 9.7 14.5 0.00 0.00 0.00 49 1008.9
20260508071620 35 135 6.4 12.9 0.00 0.00 0.00 50 1008.9
20260508071425 35 73 9.7 14.5 0.00 0.00 0.00 49 1008.8
20260508071219 35 135 8.0 12.9 0.00 0.00 0.00 49 1008.9
20260508071023 35 135 6.4 11.3 0.00 0.00 0.00 50 1008.9
20260508070817 35 135 8.0 12.9 0.00 0.00 0.00 50 1008.8
20260508070622 34 45 9.7 16.1 0.00 0.00 0.00 50 1008.9
20260508070416 34 113 8.0 12.9 0.00 0.00 0.00 50 1008.9
20260508070221 34 135 8.0 12.9 0.00 0.00 0.00 49 1008.9
20260508070025 35 135 9.7 17.7 0.00 0.00 0.00 48 1008.9
20260508065819 35 135 11.3 17.7 0.00 0.00 0.00 48 1008.9
20260508065624 35 135 8.0 16.1 0.00 0.00 0.00 48 1008.9
20260508065418 35 77 8.0 12.9 0.00 0.00 0.00 48 1009.1
20260508065222 35 78 8.0 12.9 0.00 0.00 0.00 48 1008.9
20260508065016 35 119 8.0 12.9 0.00 0.00 0.00 47 1009.0
20260508064820 35 303 8.0 12.9 0.00 0.00 0.00 47 1009.0
20260508064625 35 138 9.7 17.7 0.00 0.00 0.00 46 1008.9
20260508064419 35 135 8.0 12.9 0.00 0.00 0.00 45 1008.9
20260508064223 35 9.7 14.5 0.00 0.00 0.00 45 1009.0
20260508064018 35 135 3.2 9.7 0.00 0.00 0.00 45 1009.0
20260508063822 35 135 8.0 12.9 0.00 0.00 0.00 45 1008.9
20260508063616 36 3.2 8.0 0.00 0.00 0.00 44 1008.9
20260508063420 36 135 4.8 11.3 0.00 0.00 0.00 44 1009.0
20260508063225 36 1.6 11.3 0.00 0.00 0.00 44 1009.0
20260508063019 36 180 1.6 9.7 0.00 0.00 0.00 44 1009.1
20260508062823 36 156 4.8 9.7 0.00 0.00 0.00 44 1009.1
20260508062617 36 135 3.2 8.0 0.00 0.00 0.00 45 1009.1
20260508062422 36 135 3.2 6.4 0.00 0.00 0.00 45 1009.1
20260508062216 36 0.0 0.0 0.00 0.00 0.00 45 1009.1
20260508062021 36 3.2 8.0 0.00 0.00 0.00 44 1009.1
20260508061825 36 161 4.8 9.7 0.00 0.00 0.00 45 1009.3
20260508061619 36 135 6.4 9.7 0.00 0.00 0.00 45 1009.2
20260508061424 36 135 8.0 12.9 0.00 0.00 0.00 45 1009.2
20260508061218 36 135 6.4 12.9 0.00 0.00 0.00 45 1009.2
20260508061022 36 135 6.4 8.0 0.00 0.00 0.00 44 1009.3
20260508060816 36 135 8.0 12.9 0.00 0.00 0.00 44 1009.3
20260508060620 36 135 3.2 12.9 0.00 0.00 0.00 44 1009.3
20260508060425 36 180 1.6 9.7 0.00 0.00 0.00 44 1009.3
20260508060219 36 3.2 11.3 0.00 0.00 0.00 43 1009.3
20260508060023 36 135 4.8 12.9 0.00 0.00 0.00 43 1009.3
20260508055817 36 135 4.8 12.9 0.00 0.00 0.00 44 1009.3
20260508055622 36 0.0 3.2 0.00 0.00 0.00 44 1009.4
20260508055416 36 135 0.0 4.8 0.00 0.00 0.00 45 1009.3
20260508055220 36 135 6.4 12.9 0.00 0.00 0.00 45 1009.4
20260508055025 36 4.8 6.4 0.00 0.00 0.00 46 1009.3
20260508054819 35 135 4.8 16.1 0.00 0.00 0.00 46 1009.3
20260508054623 35 135 9.7 16.1 0.00 0.00 0.00 45 1009.5
20260508054418 36 45 8.0 16.1 0.00 0.00 0.00 45 1009.4
20260508054222 36 135 3.2 16.1 0.00 0.00 0.00 44 1009.4
20260508054016 36 135 6.4 12.9 0.00 0.00 0.00 44 1009.5
20260508053820 36 135 1.6 12.9 0.00 0.00 0.00 44 1009.5
20260508053625 36 1.6 12.9 0.00 0.00 0.00 45 1009.5
20260508053419 36 148 4.8 12.9 0.00 0.00 0.00 45 1009.5
20260508053223 36 135 6.4 12.9 0.00 0.00 0.00 45 1009.5
20260508053017 36 135 1.6 11.3 0.00 0.00 0.00 46 1009.4
20260508052822 36 72 3.2 11.3 0.00 0.00 0.00 46 1009.6
20260508052616 36 135 0.0 6.4 0.00 0.00 0.00 47 1009.5
20260508052420 36 135 8.0 14.5 0.00 0.00 0.00 47 1009.6
20260508052225 36 138 3.2 6.4 0.00 0.00 0.00 47 1009.5
20260508052019 35 135 4.8 8.0 0.00 0.00 0.00 48 1009.6
20260508051823 35 135 1.6 12.9 0.00 0.00 0.00 48 1009.6
20260508051617 35 158 9.7 12.9 0.00 0.00 0.00 48 1009.6
20260508051422 36 135 3.2 11.3 0.00 0.00 0.00 49 1009.8
20260508051216 36 135 0.0 8.0 0.00 0.00 0.00 49 1009.7
20260508051020 36 135 8.0 16.1 0.00 0.00 0.00 48 1009.8
20260508050825 36 135 4.8 8.0 0.00 0.00 0.00 49 1009.7
20260508050619 36 135 0.0 8.0 0.00 0.00 0.00 48 1009.8
20260508050423 36 135 3.2 11.3 0.00 0.00 0.00 47 1009.8
20260508050217 36 135 8.0 16.1 0.00 0.00 0.00 46 1009.9
20260508050022 36 180 0.0 6.4 0.00 0.00 0.00 44 1009.9
20260508045816 36 45 0.0 6.4 0.00 0.00 0.00 43 1009.9
20260508045620 36 45 1.6 6.4 0.00 0.00 0.00 42 1009.9
20260508045425 37 0.0 0.0 0.00 0.00 0.00 41 1009.9
20260508045219 37 135 1.6 6.4 0.00 0.00 0.00 41 1010.0
20260508045024 37 135 1.6 6.4 0.00 0.00 0.00 37 1010.0
20260508044817 37 135 1.6 6.4 0.00 0.00 0.00 37 1010.0
20260508044622 37 0.0 0.0 0.00 0.00 0.00 36 1010.0
20260508044416 38 0.0 0.0 0.00 0.00 0.00 35 1010.0
20260508044220 38 0.0 0.0 0.00 0.00 0.00 35 1010.0
20260508044025 38 0.0 0.0 0.00 0.00 0.00 36 1010.0
20260508043819 38 0.0 0.0 0.00 0.00 0.00 37 1010.0
20260508043623 37 0.0 0.0 0.00 0.00 0.00 37 1010.0
20260508043417 37 0.0 0.0 0.00 0.00 0.00 36 1010.0
20260508043222 37 0.0 0.0 0.00 0.00 0.00 35 1010.1
20260508043016 37 0.0 0.0 0.00 0.00 0.00 36 1010.2
20260508042820 37 0.0 0.0 0.00 0.00 0.00 36 1010.2
20260508042625 37 0.0 0.0 0.00 0.00 0.00 35 1010.1
20260508042419 37 0.0 1.6 0.00 0.00 0.00 35 1010.1
20260508042223 37 135 1.6 8.0 0.00 0.00 0.00 37 1010.2
20260508042017 37 135 3.2 8.0 0.00 0.00 0.00 37 1010.1
20260508041822 38 0.0 3.2 0.00 0.00 0.00 38 1010.1
20260508041616 38 0.0 0.0 0.00 0.00 0.00 40 1010.1
20260508041420 38 0.0 0.0 0.00 0.00 0.00 40 1010.2
20260508041225 37 0.0 0.0 0.00 0.00 0.00 40 1010.2
20260508041019 37 0.0 0.0 0.00 0.00 0.00 41 1010.1
20260508040823 37 0.0 0.0 0.00 0.00 0.00 40 1010.2
20260508040617 37 0.0 0.0 0.00 0.00 0.00 40 1010.2
20260508040422 37 0.0 0.0 0.00 0.00 0.00 44 1010.2
20260508040216 37 0.0 0.0 0.00 0.00 0.00 43 1010.2
20260508040020 37 135 4.8 11.3 0.00 0.00 0.00 42 1010.3
20260508035825 37 0.0 0.0 0.00 0.00 0.00 47 1010.3
20260508035619 36 0.0 0.0 0.00 0.00 0.00 47 1010.4
20260508035423 36 0.0 1.6 0.00 0.00 0.00 47 1010.4
20260508035217 36 1.6 4.8 0.00 0.00 0.00 46 1010.5
20260508035022 36 1.6 8.0 0.00 0.00 0.00 45 1010.5
20260508034816 36 0.0 0.0 0.00 0.00 0.00 49 1010.6
20260508034620 36 0.0 0.0 0.00 0.00 0.00 51 1010.5
20260508034425 36 0.0 0.0 0.00 0.00 0.00 50 1010.6
20260508034219 35 0.0 0.0 0.00 0.00 0.00 50 1010.7
20260508034023 35 0.0 0.0 0.00 0.00 0.00 49 1010.8
20260508033817 35 0.0 0.0 0.00 0.00 0.00 49 1010.8
20260508033622 35 0.0 0.0 0.00 0.00 0.00 49 1010.8
20260508033416 35 135 3.2 8.0 0.00 0.00 0.00 50 1010.8
20260508033220 35 0.0 0.0 0.00 0.00 0.00 50 1010.9
20260508033025 35 0.0 0.0 0.00 0.00 0.00 51 1010.8
20260508032819 35 0.0 0.0 0.00 0.00 0.00 52 1010.8
20260508032623 35 0.0 0.0 0.00 0.00 0.00 51 1010.9
20260508032417 35 0.0 0.0 0.00 0.00 0.00 51 1010.9
20260508032222 35 0.0 0.0 0.00 0.00 0.00 52 1011.0
20260508032016 34 0.0 0.0 0.00 0.00 0.00 51 1011.1
20260508031820 34 0.0 0.0 0.00 0.00 0.00 51 1011.1
20260508031625 35 0.0 0.0 0.00 0.00 0.00 51 1011.2
20260508031419 35 1.6 6.4 0.00 0.00 0.00 51 1011.2
20260508031223 35 0.0 0.0 0.00 0.00 0.00 52 1011.3
20260508031017 35 0.0 0.0 0.00 0.00 0.00 53 1011.2
20260508030822 35 0.0 0.0 0.00 0.00 0.00 53 1011.2
20260508030616 35 0.0 0.0 0.00 0.00 0.00 53 1011.2
20260508030420 35 0.0 0.0 0.00 0.00 0.00 53 1011.2
20260508030225 35 0.0 0.0 0.00 0.00 0.00 54 1011.3
20260508030018 35 0.0 0.0 0.00 0.00 0.00 55 1011.4
20260508025823 34 0.0 0.0 0.00 0.00 0.00 54 1011.4
20260508025617 34 0.0 0.0 0.00 0.00 0.00 54 1011.4
20260508025421 34 0.0 0.0 0.00 0.00 0.00 54 1011.4
20260508025216 34 0.0 0.0 0.00 0.00 0.00 54 1011.4
20260508025020 34 0.0 0.0 0.00 0.00 0.00 54 1011.3
20260508024825 34 0.0 0.0 0.00 0.00 0.00 54 1011.4
20260508024619 34 0.0 0.0 0.00 0.00 0.00 54 1011.4
20260508024423 34 0.0 0.0 0.00 0.00 0.00 54 1011.4
20260508024217 34 0.0 0.0 0.00 0.00 0.00 54 1011.4
20260508024022 34 0.0 0.0 0.00 0.00 0.00 54 1011.5
20260508023816 34 0.0 0.0 0.00 0.00 0.00 55 1011.5
20260508023620 34 0.0 0.0 0.00 0.00 0.00 55 1011.6
20260508023425 34 0.0 0.0 0.00 0.00 0.00 56 1011.7
20260508023219 34 0.0 0.0 0.00 0.00 0.00 58 1011.6
20260508023023 33 0.0 0.0 0.00 0.00 0.00 58 1011.5
20260508022817 33 0.0 0.0 0.00 0.00 0.00 57 1011.6
20260508022622 33 0.0 0.0 0.00 0.00 0.00 57 1011.6
20260508022416 33 0.0 0.0 0.00 0.00 0.00 56 1011.7
20260508022220 33 0.0 0.0 0.00 0.00 0.00 57 1011.8
20260508022025 33 0.0 0.0 0.00 0.00 0.00 59 1011.7
20260508021819 33 0.0 0.0 0.00 0.00 0.00 60 1011.7
20260508021623 33 0.0 0.0 0.00 0.00 0.00 60 1011.7
20260508021417 33 0.0 0.0 0.00 0.00 0.00 61 1011.7
20260508021222 33 0.0 0.0 0.00 0.00 0.00 63 1011.7
20260508021016 32 0.0 0.0 0.00 0.00 0.00 63 1011.7
20260508020820 32 0.0 0.0 0.00 0.00 0.00 63 1011.7
20260508020625 32 0.0 0.0 0.00 0.00 0.00 66 1011.7
20260508020419 32 0.0 0.0 0.00 0.00 0.00 67 1011.6
20260508020223 32 0.0 0.0 0.00 0.00 0.00 68 1011.6
20260508020017 31 0.0 0.0 0.00 0.00 0.00 69 1011.7
20260508015822 31 0.0 0.0 0.00 0.00 0.00 70 1011.7
20260508015616 31 0.0 0.0 0.00 0.00 0.00 69 1011.7
20260508015420 31 0.0 0.0 0.00 0.00 0.00 68 1011.7
20260508015224 30 0.0 0.0 0.00 0.00 0.00 68 1011.8
20260508015019 30 0.0 0.0 0.00 0.00 0.00 67 1011.7
20260508014823 30 0.0 0.0 0.00 0.00 0.00 68 1011.7
20260508014617 30 0.0 0.0 0.00 0.00 0.00 70 1011.6
20260508014422 30 0.0 0.0 0.00 0.00 0.00 70 1011.7
20260508014216 30 0.0 0.0 0.00 0.00 0.00 70 1011.8
20260508014020 30 0.0 0.0 0.00 0.00 0.00 70 1011.7
20260508013825 30 315 0.0 6.4 0.00 0.00 0.00 71 1011.7
20260508013619 30 0.0 0.0 0.00 0.00 0.00 71 1011.6
20260508013423 30 0.0 0.0 0.00 0.00 0.00 71 1011.7
20260508013217 30 0.0 0.0 0.00 0.00 0.00 71 1011.6
20260508013022 30 0.0 0.0 0.00 0.00 0.00 71 1011.6
20260508012816 30 0.0 0.0 0.00 0.00 0.00 71 1011.6
20260508012620 30 0.0 0.0 0.00 0.00 0.00 71 1011.6
20260508012425 30 0.0 0.0 0.00 0.00 0.00 71 1011.6
20260508012219 30 0.0 0.0 0.00 0.00 0.00 72 1011.5
20260508012023 30 0.0 0.0 0.00 0.00 0.00 72 1011.6
20260508011817 30 0.0 0.0 0.00 0.00 0.00 72 1011.6
20260508011622 30 0.0 0.0 0.00 0.00 0.00 72 1011.5
20260508011416 30 0.0 0.0 0.00 0.00 0.00 73 1011.5
20260508011220 30 0.0 0.0 0.00 0.00 0.00 74 1011.4
20260508011025 30 0.0 0.0 0.00 0.00 0.00 74 1011.5
20260508010819 30 0.0 0.0 0.00 0.00 0.00 74 1011.4
20260508010623 30 0.0 0.0 0.00 0.00 0.00 74 1011.5
20260508010417 30 0.0 0.0 0.00 0.00 0.00 74 1011.5
20260508010222 30 0.0 0.0 0.00 0.00 0.00 75 1011.4
20260508010016 30 0.0 0.0 0.00 0.00 0.00 75 1011.4
20260508005820 30 0.0 0.0 0.00 0.00 0.00 76 1011.3
20260508005625 30 0.0 0.0 0.00 0.00 0.00 77 1011.4
20260508005419 30 0.0 0.0 0.00 0.00 0.00 78 1011.4
20260508005223 29 0.0 0.0 0.00 0.00 0.00 78 1011.4
20260508005017 29 0.0 0.0 0.00 0.00 0.00 78 1011.4
20260508004822 29 0.0 0.0 0.00 0.00 0.00 78 1011.3
20260508004616 29 0.0 0.0 0.00 0.00 0.00 78 1011.4
20260508004420 28 0.0 0.0 0.00 0.00 0.00 79 1011.3
20260508004225 28 0.0 0.0 0.00 0.00 0.00 79 1011.4
20260508004019 28 0.0 0.0 0.00 0.00 0.00 79 1011.3
20260508003823 28 0.0 0.0 0.00 0.00 0.00 79 1011.4
20260508003617 28 0.0 0.0 0.00 0.00 0.00 79 1011.4
20260508003421 28 0.0 0.0 0.00 0.00 0.00 79 1011.4
20260508003216 28 0.0 0.0 0.00 0.00 0.00 79 1011.4
20260508003020 28 0.0 0.0 0.00 0.00 0.00 79 1011.3
20260508002824 28 0.0 0.0 0.00 0.00 0.00 79 1011.2
20260508002619 28 0.0 0.0 0.00 0.00 0.00 80 1011.2
20260508002423 28 0.0 0.0 0.00 0.00 0.00 80 1011.2
20260508002217 27 0.0 0.0 0.00 0.00 0.00 80 1011.1
20260508002021 27 0.0 0.0 0.00 0.00 0.00 80 1011.2
20260508001816 27 0.0 0.0 0.00 0.00 0.00 80 1011.1
20260508001620 27 0.0 0.0 0.00 0.00 0.00 80 1011.0
20260508001425 27 0.0 0.0 0.00 0.00 0.00 80 1011.1
20260508001219 27 0.0 0.0 0.00 0.00 0.00 80 1011.1
20260508001023 27 0.0 0.0 0.00 0.00 0.00 80 1011.1
20260508000817 27 0.0 0.0 0.00 0.00 0.00 80 1011.0